Overview Statistics Trail Chart Weather Telemetry Raw packets
 

This is the latest recevied weather packets stored in our database for station/object KH6DH-13. If no packets are shown the sender has not sent any weather packets the latest 10 day(s).

<< 22 23 24 25 26 27 28 >>
Time Temp. Humidity Pressure Rain* Wind** Luminosity Snow
1788339667 25° C - - 0 mm 1.79 m/s, 359° - -
1788339066 25.56° C - - 0 mm 0.89 m/s, 69° - -
1788338465 25.56° C - - 0 mm 2.68 m/s, 96° - -
1788337864 25.56° C - - 0.25 mm 2.68 m/s, 39° - -
1788337263 25.56° C - - 0.25 mm 2.68 m/s, 98° - -
1788336662 25.56° C - - 0.25 mm 0.89 m/s, 35° - -
1788336061 25.56° C - - 0.25 mm 0.89 m/s, 233° - -
1788335460 25° C - - 0.25 mm 0.89 m/s, 359° - -
1788334859 25.56° C - - 0.25 mm 0.89 m/s, 58° - -
1788334258 25° C - - 0.76 mm 0.89 m/s, 1° - -
1788333654 25° C - - 0.76 mm 2.24 m/s, 56° - -
1788333053 25.56° C - - 0.76 mm 0 m/s - -
1788332452 25.56° C - - 0.76 mm 0 m/s - -
1788331851 25° C - - 0.76 mm 0.45 m/s, 14° - -
1788331250 25.56° C - - 0.76 mm 0.89 m/s, 339° - -
1788330661 25° C - - 0.25 mm 0 m/s - -
1788330048 25° C - - 0.25 mm 0.45 m/s, 173° - -
1788329447 25.56° C - - 0.25 mm 0 m/s - -
1788328846 25.56° C - - 0.25 mm 0.45 m/s, 353° - -
1788328245 25.56° C - - 0.25 mm 0 m/s - -
1788327644 25.56° C - - 0.25 mm 1.34 m/s, 132° - -
1788327043 26.11° C - - 0.25 mm 0.45 m/s, 41° - -
1788326442 26.11° C - - 0.25 mm 0.45 m/s, 79° - -
1788325841 26.11° C - - 0.25 mm 2.24 m/s, 107° - -
1788325240 26.11° C - - 0.25 mm 0.45 m/s, 136° - -

* Rain latest hour (hover to see other rain measurements)
** Current wind speed in m/s (hover to see current wind gust speed)